TimeCDT,TemperatureF,Dew PointF,Humidity,Sea Level PressureIn,VisibilityMPH,Wind Direction,Wind SpeedMPH,Gust SpeedMPH,PrecipitationIn,Events,Conditions,WindDirDegrees,DateUTC
12:15 AM,55.4,53.6,94,30.11,10.0,SSE,3.5,-,N/A,,Clear,160,2013-08-23 05:15:00
12:35 AM,53.6,53.6,100,30.11,10.0,Calm,Calm,-,N/A,,Clear,0,2013-08-23 05:35:00
12:55 AM,53.6,53.6,100,30.10,10.0,SSE,3.5,-,N/A,,Mostly Cloudy,160,2013-08-23 05:55:00
1:15 AM,53.6,53.6,100,30.10,10.0,South,4.6,-,N/A,,Mostly Cloudy,170,2013-08-23 06:15:00
1:35 AM,57.2,51.8,82,30.10,10.0,South,4.6,-,N/A,,Mostly Cloudy,170,2013-08-23 06:35:00
1:55 AM,57.2,51.8,82,30.10,10.0,Calm,Calm,-,N/A,,Scattered Clouds,0,2013-08-23 06:55:00
2:15 AM,57.2,51.8,82,30.09,10.0,Calm,Calm,-,N/A,,Mostly Cloudy,0,2013-08-23 07:15:00
2:55 AM,57.2,50.0,77,30.09,10.0,Calm,Calm,-,N/A,,Clear,0,2013-08-23 07:55:00
3:15 AM,55.4,50.0,82,30.09,10.0,Calm,Calm,-,N/A,,Partly Cloudy,0,2013-08-23 08:15:00
3:35 AM,55.4,50.0,82,30.09,10.0,Calm,Calm,-,N/A,,Partly Cloudy,0,2013-08-23 08:35:00
3:55 AM,57.2,48.2,72,30.08,10.0,Calm,Calm,-,N/A,,Scattered Clouds,0,2013-08-23 08:55:00
4:15 AM,57.2,48.2,72,30.08,10.0,Calm,Calm,-,N/A,,Mostly Cloudy,0,2013-08-23 09:15:00
4:35 AM,57.2,48.2,72,30.08,10.0,Calm,Calm,-,N/A,,Scattered Clouds,0,2013-08-23 09:35:00
4:55 AM,55.4,50.0,82,30.07,10.0,Calm,Calm,-,N/A,,Scattered Clouds,0,2013-08-23 09:55:00
5:15 AM,53.6,51.8,94,30.08,10.0,East,4.6,-,N/A,,Mostly Cloudy,90,2013-08-23 10:15:00
5:35 AM,53.6,51.8,94,30.07,10.0,East,3.5,-,N/A,,Mostly Cloudy,100,2013-08-23 10:35:00
5:55 AM,53.6,51.8,94,30.08,10.0,SE,6.9,-,N/A,,Mostly Cloudy,130,2013-08-23 10:55:00
6:15 AM,53.6,51.8,94,30.07,10.0,ESE,5.8,-,N/A,,Mostly Cloudy,120,2013-08-23 11:15:00
6:35 AM,53.6,50.0,88,30.07,10.0,SE,3.5,-,N/A,,Mostly Cloudy,130,2013-08-23 11:35:00
6:55 AM,53.6,50.0,88,30.07,10.0,ESE,4.6,-,N/A,,Scattered Clouds,120,2013-08-23 11:55:00
7:15 AM,53.6,51.8,94,30.07,10.0,ESE,4.6,-,N/A,,Mostly Cloudy,110,2013-08-23 12:15:00
7:35 AM,53.6,53.6,100,30.06,10.0,ESE,5.8,-,N/A,,Scattered Clouds,120,2013-08-23 12:35:00
7:55 AM,57.2,53.6,88,30.06,10.0,Calm,Calm,-,N/A,,Mostly Cloudy,0,2013-08-23 12:55:00
8:15 AM,60.8,53.6,77,30.05,10.0,SE,8.1,-,N/A,,Partly Cloudy,130,2013-08-23 13:15:00
8:35 AM,64.4,50.0,59,30.05,10.0,ESE,5.8,-,N/A,,Clear,120,2013-08-23 13:35:00
8:55 AM,66.2,48.2,52,30.05,10.0,South,6.9,-,N/A,,Clear,170,2013-08-23 13:55:00
9:15 AM,68.0,50.0,52,30.05,10.0,SSE,9.2,-,N/A,,Clear,150,2013-08-23 14:15:00
9:35 AM,68.0,50.0,52,30.04,10.0,SSE,12.7,-,N/A,,Clear,160,2013-08-23 14:35:00
9:55 AM,69.8,50.0,49,30.03,10.0,SSE,15.0,-,N/A,,Clear,150,2013-08-23 14:55:00
10:15 AM,69.8,50.0,49,30.03,10.0,SE,10.4,18.4,N/A,,Clear,130,2013-08-23 15:15:00
10:35 AM,71.6,51.8,50,30.03,10.0,SSE,11.5,-,N/A,,Clear,150,2013-08-23 15:35:00
10:55 AM,73.4,53.6,50,30.02,10.0,SE,12.7,-,N/A,,Clear,140,2013-08-23 15:55:00
11:15 AM,73.4,53.6,50,30.02,10.0,SSE,11.5,-,N/A,,Clear,150,2013-08-23 16:15:00
11:35 AM,75.2,53.6,47,30.01,10.0,SSE,12.7,-,N/A,,Clear,150,2013-08-23 16:35:00
11:55 AM,75.2,53.6,47,30.00,10.0,SSE,13.8,-,N/A,,Clear,150,2013-08-23 16:55:00
12:15 PM,77.0,53.6,44,29.99,10.0,SE,12.7,-,N/A,,Clear,140,2013-08-23 17:15:00
12:35 PM,77.0,53.6,44,29.99,10.0,South,12.7,-,N/A,,Clear,170,2013-08-23 17:35:00
12:55 PM,78.8,53.6,42,29.98,10.0,SSE,15.0,20.7,N/A,,Clear,160,2013-08-23 17:55:00
1:15 PM,78.8,53.6,42,29.97,10.0,SSE,17.3,-,N/A,,Clear,160,2013-08-23 18:15:00
1:35 PM,80.6,53.6,39,29.97,10.0,South,15.0,19.6,N/A,,Clear,170,2013-08-23 18:35:00
1:55 PM,80.6,53.6,39,29.96,10.0,SSE,11.5,19.6,N/A,,Clear,160,2013-08-23 18:55:00
2:15 PM,80.6,53.6,39,29.95,10.0,SE,15.0,23.0,N/A,,Clear,140,2013-08-23 19:15:00
2:35 PM,80.6,55.4,42,29.95,10.0,SSE,12.7,19.6,N/A,,Clear,150,2013-08-23 19:35:00
2:55 PM,80.6,55.4,42,29.94,10.0,SSE,16.1,23.0,N/A,,Clear,150,2013-08-23 19:55:00
3:15 PM,82.4,55.4,39,29.93,10.0,SE,17.3,20.7,N/A,,Clear,140,2013-08-23 20:15:00
3:35 PM,80.6,57.2,45,29.92,10.0,SE,13.8,-,N/A,,Partly Cloudy,140,2013-08-23 20:35:00
3:55 PM,82.4,57.2,42,29.92,10.0,SSE,16.1,20.7,N/A,,Partly Cloudy,150,2013-08-23 20:55:00
4:15 PM,82.4,59.0,45,29.91,10.0,SSE,17.3,21.9,N/A,,Partly Cloudy,150,2013-08-23 21:15:00
4:35 PM,82.4,59.0,45,29.91,10.0,SSE,15.0,19.6,N/A,,Clear,150,2013-08-23 21:35:00
4:55 PM,82.4,60.8,48,29.90,10.0,SSE,18.4,-,N/A,,Clear,150,2013-08-23 21:55:00
5:15 PM,82.4,62.6,51,29.90,10.0,SSE,13.8,20.7,N/A,,Clear,150,2013-08-23 22:15:00
5:35 PM,80.6,62.6,54,29.90,10.0,SSE,12.7,-,N/A,,Clear,150,2013-08-23 22:35:00
5:55 PM,80.6,64.4,58,29.89,10.0,SSE,12.7,-,N/A,,Clear,150,2013-08-23 22:55:00
6:15 PM,80.6,64.4,58,29.88,10.0,SSE,16.1,19.6,N/A,,Clear,150,2013-08-23 23:15:00
6:35 PM,80.6,64.4,58,29.88,10.0,SSE,11.5,19.6,N/A,,Clear,150,2013-08-23 23:35:00
6:55 PM,78.8,64.4,61,29.87,10.0,SSE,11.5,-,N/A,,Mostly Cloudy,150,2013-08-23 23:55:00
7:15 PM,80.6,66.2,61,29.87,10.0,SE,9.2,-,N/A,,Mostly Cloudy,140,2013-08-24 00:15:00
7:35 PM,78.8,66.2,65,29.87,10.0,SE,9.2,-,N/A,,Scattered Clouds,140,2013-08-24 00:35:00
7:55 PM,77.0,66.2,69,29.86,10.0,SSE,10.4,-,N/A,,Scattered Clouds,150,2013-08-24 00:55:00
8:15 PM,77.0,64.4,65,29.86,10.0,SE,10.4,-,N/A,,Partly Cloudy,140,2013-08-24 01:15:00
8:35 PM,77.0,64.4,65,29.86,10.0,SSE,9.2,-,N/A,,Clear,150,2013-08-24 01:35:00
8:55 PM,75.2,62.6,65,29.86,10.0,SSE,10.4,-,N/A,,Clear,150,2013-08-24 01:55:00
9:15 PM,75.2,62.6,65,29.86,10.0,SE,8.1,-,N/A,,Clear,140,2013-08-24 02:15:00
9:35 PM,73.4,64.4,73,29.87,10.0,ESE,6.9,-,N/A,,Clear,120,2013-08-24 02:35:00
9:55 PM,73.4,64.4,73,29.87,10.0,East,4.6,-,N/A,,Clear,100,2013-08-24 02:55:00
10:15 PM,73.4,64.4,73,29.87,10.0,ESE,4.6,-,N/A,,Clear,120,2013-08-24 03:15:00
10:35 PM,71.6,64.4,78,29.87,10.0,ESE,5.8,-,N/A,,Clear,120,2013-08-24 03:35:00
10:55 PM,71.6,64.4,78,29.85,10.0,ESE,6.9,-,N/A,,Scattered Clouds,120,2013-08-24 03:55:00
11:15 PM,71.6,64.4,78,29.85,10.0,SE,5.8,-,N/A,,Scattered Clouds,130,2013-08-24 04:15:00
11:35 PM,69.8,64.4,83,29.86,10.0,SE,5.8,-,N/A,,Scattered Clouds,140,2013-08-24 04:35:00
11:55 PM,69.8,64.4,83,29.86,10.0,SE,8.1,-,N/A,,Scattered Clouds,140,2013-08-24 04:55:00